STARLINK-2667, 48663

Orbit data source: Space-Track

STARLINK-2667, 48663 is a payload satellite owned by SpaceX/Seattle (US) in LEO that was launched on Wed, 26 May 2021 UTC via an FALCON 9 launch vehicle from the Air Force Eastern Test Range (AFETR). Payload-class satellites include a variety of spacecraft equipped with specific instruments for various scientific and technological missions. These include communications satellites like Starlink; space stations such as the ISS; scientific satellites like the Hubble; Earth observation satellites from companies like Planet Labs, Umbra, and HawkEye 360; GPS; miniature CubeSats for education and research; and military/defense satellites.

Loading next visibility...
Identifier
48663, 2021-044AB
Orbit
LEO
Country
Flag of USUS
Related business
Manufacturer
SpaceX/Seattle
Mission
Operational Commercial Communications
Bus & Motor
STARLINK, Unknown motor
Mass
260 kg wet, ~248 kg dry
Launch date (UTC)
2021-05-26 (5 years ago)
Launch vehicle
FALCON 9
Launch site
Air Force Eastern Test Range (AFETR)
Object type
Payload
Rocket body
Debris
Shape & HBR
Box + 1 Pan, 10.1 m
Radar Cross Section
13.562 m², Large (>1 m²)

Expand to show TLE details & history
Last TLE update: 21 hours ago

TLE from 21 hours ago
0 STARLINK-2667
1 48663U 21044AB  25349.65217120  .00000442  00000-0  48539-4 0  9998
2 48663  53.0553 128.8762 0001210  92.0976 268.0152 15.06396315251181
Epoch: 2025-12-15T15:39Z
TLE epoch observation values (Epoch: 2025-12-15T15:39:07.591Z)
Latitude
Longitude
169.54691°
Altitude
548.131 km
Speed
7.589 km/s
True Right ascension
08h 35m 30s
True Declination
0° 00' 00"
Sunlit
Object was in full shadow at epoch
Visualization orbit readout
Latitude
Unknown
Longitude
Unknown
Altitude
Unknown
Speed
Unknown
Apparent Right ascension
Unknown
Apparent Declination
Unknown
Sunlit
N/A
Visualization observer readout
Local Sidereal Time
11:37:34
Azimuth
Unknown
Elevation
Unknown
Doppler factor
Unknown
Orbital elements
Apogee altitude
548.331 km
Perigee altitude
546.655 km
Semi-major axis
6,925.63 km
Eccentricity
0.00012
Inclination
53.0553°
RAAN
128.8762°
Arg. of periapsis
92.0976°
True anomaly
268.00134°
Mean anomaly
268.0152°
Eccentric anomaly
268.00827°
Mean motion
3.76577 °/min
Orbital period
95.6 mins
BSTAR
0.000048539
Loading maneuver chart data...
Computing Atmospheric mass density...
Loading historical data...
Loading historical data...
Loading historical data...
Loading historical data...
Loading historical data...
Loading historical data...
Loading historical data...

Documentation

Showing up to 5 results
|